[[{"header":{"parameterUnit":"m.s-1","parameterCategory":1,"la1":30.2991,"la2":30.254,"lo1":-89.0895,"lo2":-89.0444,"dy":0.0017,"dx":0.0017,"nx":28,"ny":28,"refTime":"2023-10-29T21:00:00:Z","depth":0,"parameterNumber":2,"parameterNumberName":"U-component_of_WINDS"},"data":[0,0,0,0,0,0,0,0,0,0,0,0,0,0,0,0,0,0,0,0,0,0,0,0,0,0,0,0,0,0,0,0,0,0,0,0,0,0,0,0,0,0,0,0,0,0,0,0,0,0,0,0,0,0,0,0,0,0,0.5017,0.5016,0,0.494,0.494,0.4939,0.492,0.492,0.4921,0.4921,0.4841,0.4838,0.4836,0,0,0,0,0,0,0,0,0,0,0,0,0,0.5147,0.5144,0.5017,0.5016,0.5015,0.4941,0.4939,0.4938,0.492,0.492,0.4921,0.4922,0.4842,0.4839,0.4835,0,0,0,0,0,0,0,0,0,0,0,0,0,0.5082,0.5144,0.5017,0.4997,0.4995,0.4941,0.4939,0.4938,0.492,0.492,0.4921,0.4922,0.4843,0.4839,0.4835,0.4795,0,0,0.4823,0.4821,0,0,0,0,0,0,0,0,0.5086,0.5078,0.5001,0.4998,0.4995,0.4941,0.4956,0.489,0.4919,0.4948,0.4921,0.4922,0.4873,0.4867,0.4851,0.4792,0.4788,0.4823,0.482,0.4819,0.4817,0,0,0,0,0,0,0,0.509,0.5081,0.4987,0.5,0.4997,0.4991,0.4983,0.4943,0.4907,0.4946,0.4944,0.4935,0.4872,0.4855,0.4849,0.4787,0.4823,0.4819,0.4817,0.4815,0.4692,0.4691,0,0,0,0,0,0,0.5099,0.5085,0.4989,0.4985,0.5044,0.4989,0.4979,0.4957,0.4908,0.4901,0.4935,0.4935,0.4861,0.4853,0.4846,0.4796,0.4819,0.4815,0.4813,0.4693,0.4692,0.4691,0,0,0,0,0,0,0.5102,0.509,0.4992,0.5034,0.5021,0.4985,0.4961,0.4955,0.4938,0.4899,0.4893,0.4924,0.4861,0.4851,0.4808,0.4793,0.4813,0.481,0.4694,0.4693,0.4691,0.4696,0,0,0,0,0,0,0.5105,0.5091,0.5076,0.5034,0.5019,0.4956,0.496,0.4953,0.4932,0.4931,0.4887,0.4881,0.4861,0.4814,0.4804,0.4788,0.4806,0.4695,0.4693,0.4692,0.4697,0.4695,0.4693,0,0,0,0,0,0.511,0.508,0.5076,0.5064,0.4999,0.4956,0.4947,0.4925,0.493,0.4915,0.489,0.4882,0.4797,0.481,0.4799,0.4781,0.4696,0.4694,0.4692,0.4698,0.4696,0.4694,0,0,0,0,0,0,0.512,0.5074,0.5068,0.5024,0.4994,0.4953,0.4932,0.4923,0.4891,0.4891,0.4865,0.4856,0.4814,0.4793,0.4809,0.474,0.4746,0.4742,0.4755,0.4752,0.475,0.4756,0.4803,0,0,0,0,0,0.5118,0.5087,0.5048,0.5012,0.4998,0.4968,0.4948,0.4934,0.4901,0.4888,0.486,0.4829,0.4795,0.4772,0.4739,0.4695,0.4685,0.4677,0.4675,0.4674,0.467,0.4645,0.4641,0.4684,0.4684,0.4684,0,0,0.5111,0.5082,0.5064,0.5014,0.4989,0.4957,0.4957,0.4923,0.4898,0.4883,0.484,0.4819,0.4782,0.4738,0.4718,0.472,0.4656,0.4671,0.467,0.4667,0.4642,0.4638,0.4635,0.4683,0.4683,0.4683,0,0,0.5083,0.5059,0.5026,0.5002,0.4964,0.4945,0.4937,0.4897,0.4883,0.484,0.4828,0.4799,0.4741,0.4715,0.4694,0.4658,0.465,0.4648,0.4637,0.4613,0.461,0.4607,0.4593,0.4589,0.4645,0.4645,0.4645,0,0.508,0.5031,0.5011,0.4977,0.4955,0.4941,0.4908,0.4885,0.4839,0.4824,0.4827,0.4754,0.4729,0.4679,0.467,0.4654,0.4644,0.4652,0.4612,0.4609,0.4606,0.4592,0.4588,0.4645,0.4645,0.4645,0.4645,0,0.5029,0.4995,0.4974,0.493,0.4906,0.4873,0.4847,0.4825,0.4814,0.4794,0.4751,0.472,0.468,0.4668,0.4656,0.4616,0.4619,0.4618,0.4623,0.4602,0.4589,0.4584,0.4645,0.4645,0.4645,0.4645,0,0,0.5003,0.495,0.4942,0.4922,0.4881,0.4854,0.4821,0.4783,0.4764,0.4733,0.4704,0.4656,0.4655,0.4632,0.4618,0.4597,0.457,0.4598,0.4597,0.4593,0.4523,0.4524,0.4518,0.4565,0.4564,0.4563,0.4526,0,0.4969,0.4909,0.489,0.484,0.4809,0.4796,0.4767,0.4738,0.4719,0.469,0.4669,0.4635,0.4637,0.4622,0.4601,0.4577,0.4555,0.458,0.4537,0.4535,0.4545,0.4511,0.4511,0.4478,0.4521,0.452,0.452,0,0.492,0.4889,0.4836,0.48,0.4786,0.476,0.4724,0.4696,0.4664,0.4651,0.4626,0.4614,0.4578,0.4588,0.4538,0.4555,0.4537,0.4523,0.4521,0.4515,0.4525,0.4503,0.4467,0.4461,0.4512,0.4512,0.4513,0,0.4906,0.4851,0.4812,0.4796,0.4752,0.4734,0.4715,0.4684,0.4662,0.4631,0.4616,0.4581,0.4562,0.4535,0.4513,0.4522,0.4465,0.4473,0.4453,0.4454,0.444,0.4441,0.4399,0.4431,0.4431,0.4431,0.4431,0,0.4869,0.4837,0.4805,0.4781,0.4745,0.4724,0.4689,0.4669,0.4641,0.4613,0.46,0.4573,0.4547,0.4518,0.4501,0.4462,0.4454,0.4442,0.4438,0.4442,0.4444,0.4429,0.443,0.443,0.443,0.443,0.4431,0,0.4845,0.4823,0.478,0.4743,0.4733,0.4708,0.4676,0.4652,0.4633,0.4598,0.4588,0.4558,0.4523,0.4499,0.4454,0.4442,0.44,0.4397,0.4411,0.4409,0.439,0.4392,0.4336,0.4327,0.4366,0.4366,0.4366,0,0.4823,0.4798,0.4758,0.4739,0.472,0.4689,0.4667,0.4646,0.4624,0.4586,0.4567,0.4531,0.45,0.4444,0.4418,0.4383,0.4378,0.4361,0.4373,0.4379,0.4377,0.4378,0.4375,0.4359,0.4359,0.4358,0.4358,0,0.4784,0.4775,0.4744,0.471,0.4685,0.4657,0.4629,0.4614,0.4588,0.4564,0.4528,0.4505,0.4459,0.4423,0.4386,0.4366,0.4357,0.4355,0.4349,0.4352,0.4361,0.4355,0.4405,0.4356,0.4356,0.4356,0.4356,0.4356,0.4759,0.4737,0.4706,0.4673,0.465,0.4624,0.46,0.4579,0.4549,0.451,0.45,0.4462,0.4431,0.438,0.436,0.433,0.4332,0.4323,0.432,0.4318,0.4317,0.4368,0.4323,0.4323,0.4324,0.4324,0.4324,0,0.4719,0.4699,0.4669,0.4631,0.4605,0.4601,0.457,0.4548,0.4515,0.4487,0.4458,0.4417,0.4383,0.4355,0.4319,0.4301,0.4296,0.4292,0.4292,0.4288,0.4318,0.4327,0.4296,0.4296,0.4296,0.4296,0.4296,0.4296,0.4695,0.4657,0.4644,0.4594,0.4574,0.4537,0.452,0.4496,0.4474,0.4429,0.44,0.4383,0.4355,0.4318,0.4286,0.4279,0.4266,0.4262,0.4254,0.4282,0.4285,0.4288,0.4296,0.426,0.426,0.4226,0.4225,0.4225]},{"header":{"parameterUnit":"m.s-1","parameterCategory":1,"la1":30.2991,"la2":30.254,"lo1":-89.0895,"lo2":-89.0444,"dy":0.0017,"dx":0.0017,"nx":28,"ny":28,"refTime":"2023-10-29T21:00:00:Z","depth":0,"parameterNumber":3,"parameterNumberName":"V-component_of_WINDS"},"data":[0,0,0,0,0,0,0,0,0,0,0,0,0,0,0,0,0,0,0,0,0,0,0,0,0,0,0,0,0,0,0,0,0,0,0,0,0,0,0,0,0,0,0,0,0,0,0,0,0,0,0,0,0,0,0,0,0,0,-8.8771,-8.8772,0,-8.8903,-8.8905,-8.8906,-8.8826,-8.8823,-8.8819,-8.8815,-8.8944,-8.895,-8.8957,0,0,0,0,0,0,0,0,0,0,0,0,0,-8.8442,-8.8448,-8.877,-8.8772,-8.8774,-8.8903,-8.8905,-8.8907,-8.8827,-8.8822,-8.8818,-8.8813,-8.8941,-8.895,-8.8958,0,0,0,0,0,0,0,0,0,0,0,0,0,-8.8581,-8.8451,-8.877,-8.875,-8.8749,-8.8903,-8.8905,-8.8907,-8.8828,-8.8822,-8.8817,-8.8811,-8.8939,-8.8949,-8.8959,-8.9138,0,0,-8.8991,-8.8996,0,0,0,0,0,0,0,0,-8.8573,-8.8593,-8.8751,-8.8751,-8.8751,-8.8843,-8.8836,-8.8984,-8.8829,-8.8798,-8.8815,-8.8808,-8.8914,-8.8926,-8.8963,-8.9144,-8.9149,-8.8992,-8.8998,-8.9003,-8.9006,0,0,0,0,0,0,0,-8.8563,-8.8586,-8.8823,-8.8753,-8.8754,-8.8732,-8.8746,-8.8864,-8.8886,-8.88,-8.8795,-8.8812,-8.8913,-8.8954,-8.8966,-8.9151,-8.8992,-8.9001,-8.9007,-8.9011,-8.9486,-8.9492,0,0,0,0,0,0,-8.8556,-8.8579,-8.8818,-8.8827,-8.8646,-8.8743,-8.8758,-8.8819,-8.8885,-8.8889,-8.8817,-8.8808,-8.8939,-8.8954,-8.897,-8.9185,-8.9003,-8.9012,-8.9018,-8.948,-8.9488,-8.9495,0,0,0,0,0,0,-8.8549,-8.8578,-8.8813,-8.8702,-8.873,-8.8755,-8.8824,-8.8825,-8.8865,-8.8897,-8.89,-8.8855,-8.8935,-8.8955,-8.9098,-8.9188,-8.9017,-8.9027,-8.9473,-8.9482,-8.9491,-8.9616,0,0,0,0,0,0,-8.854,-8.8576,-8.8646,-8.8704,-8.8736,-8.8941,-8.8829,-8.8831,-8.8884,-8.8874,-8.8934,-8.8938,-8.8932,-8.9083,-8.9108,-8.92,-8.9035,-8.9464,-8.9477,-8.9488,-8.9603,-8.9628,-8.9649,0,0,0,0,0,-8.8529,-8.8673,-8.865,-8.8679,-8.8824,-8.8946,-8.8964,-8.8957,-8.8892,-8.8961,-8.8982,-8.8936,-8.9174,-8.9098,-8.9126,-8.9222,-8.9459,-8.9473,-8.9487,-8.9593,-8.9623,-8.9649,0,0,0,0,0,0,-8.8622,-8.868,-8.8655,-8.8823,-8.8881,-8.8932,-8.9019,-8.8988,-8.9063,-8.905,-8.9035,-8.9049,-8.9198,-8.9224,-8.9137,-8.9399,-8.9306,-8.9327,-8.9377,-8.9406,-8.9428,-8.9419,-8.9044,0,0,0,0,0,-8.8662,-8.8759,-8.8804,-8.8948,-8.8978,-8.8995,-8.9047,-8.9037,-8.9095,-8.9118,-8.9149,-8.9205,-8.9293,-8.935,-8.9433,-8.9607,-8.9619,-8.9687,-8.971,-8.9728,-8.9746,-8.9841,-8.9872,-8.9542,-8.9541,-8.9541,0,0,-8.8746,-8.879,-8.8851,-8.8968,-8.9011,-8.911,-8.9015,-8.9123,-8.9196,-8.9133,-8.9271,-8.9296,-8.9357,-8.9517,-8.9589,-8.9543,-8.984,-8.9746,-8.9761,-8.9769,-8.9859,-8.9891,-8.9918,-8.9551,-8.9549,-8.9548,0,0,-8.8949,-8.8992,-8.9118,-8.9165,-8.9233,-8.9243,-8.9273,-8.9331,-8.9347,-8.9485,-8.9441,-8.9526,-8.9677,-8.9723,-8.9766,-8.9991,-8.9951,-9.0018,-9.0137,-9.023,-9.0256,-9.0279,-9.036,-9.0389,-9.0035,-9.0036,-9.0036,0,-8.9044,-8.9194,-8.9186,-8.9299,-8.9351,-8.9303,-8.9429,-8.9474,-8.9564,-8.9601,-8.9549,-8.974,-8.9777,-8.9948,-9.0003,-9.004,-9.0073,-9.0011,-9.0254,-9.0277,-9.0298,-9.0375,-9.0405,-9.0043,-9.0043,-9.0042,-9.0041,0,-8.9307,-8.9412,-8.9504,-8.9598,-8.966,-8.9779,-8.9788,-8.9852,-8.9837,-8.9852,-8.9994,-9.0038,-9.013,-9.0169,-9.0154,-9.0339,-9.0308,-9.0256,-9.0162,-9.0338,-9.041,-9.0439,-9.0054,-9.0052,-9.0049,-9.0047,0,0,-8.9571,-8.9661,-8.9695,-8.9738,-8.9811,-8.989,-9.0007,-9.0099,-9.0155,-9.022,-9.0317,-9.0447,-9.04,-9.0449,-9.0439,-9.0521,-9.0697,-9.0458,-9.0459,-9.0501,-9.0904,-9.0944,-9.0978,-9.0671,-9.0677,-9.0681,-9.0899,0,-8.978,-8.9987,-8.9985,-9.0176,-9.0273,-9.0229,-9.0331,-9.0386,-9.0404,-9.0487,-9.0505,-9.0598,-9.0528,-9.0558,-9.0637,-9.0659,-9.0778,-9.0643,-9.0761,-9.0765,-9.0747,-9.1016,-9.1058,-9.1261,-9.0927,-9.0932,-9.0935,0,-9.0051,-9.0129,-9.0331,-9.0392,-9.0432,-9.0524,-9.061,-9.069,-9.0752,-9.0759,-9.0816,-9.0793,-9.0911,-9.0815,-9.0976,-9.0885,-9.0932,-9.0951,-9.0958,-9.0969,-9.0861,-9.1034,-9.1325,-9.1356,-9.0979,-9.0976,-9.0973,0,-9.0224,-9.0379,-9.0521,-9.0558,-9.0633,-9.0699,-9.0732,-9.0789,-9.0845,-9.0919,-9.0956,-9.1041,-9.1088,-9.1154,-9.1155,-9.1084,-9.1318,-9.1222,-9.1327,-9.1327,-9.1378,-9.1375,-9.1682,-9.1408,-9.1408,-9.1407,-9.1407,0,-9.0458,-9.0584,-9.06,-9.0687,-9.0827,-9.0822,-9.0959,-9.0986,-9.1037,-9.1128,-9.1094,-9.1179,-9.1175,-9.126,-9.1261,-9.1395,-9.1416,-9.1425,-9.1423,-9.1428,-9.1428,-9.1459,-9.1445,-9.1415,-9.1414,-9.1412,-9.1411,0,-9.0675,-9.0692,-9.0843,-9.0903,-9.0921,-9.1021,-9.1071,-9.1154,-9.1169,-9.1284,-9.1311,-9.1335,-9.1435,-9.1442,-9.1556,-9.1557,-9.172,-9.1703,-9.1701,-9.1698,-9.1803,-9.1793,-9.2141,-9.2187,-9.1884,-9.1886,-9.1889,0,-9.0824,-9.092,-9.0992,-9.1052,-9.109,-9.1186,-9.1245,-9.1244,-9.1306,-9.1385,-9.1458,-9.1555,-9.1633,-9.1794,-9.182,-9.1908,-9.1892,-9.2009,-9.1905,-9.1908,-9.1895,-9.189,-9.19,-9.2029,-9.2032,-9.2035,-9.2037,0,-9.1086,-9.109,-9.1177,-9.1269,-9.1341,-9.1412,-9.1478,-9.1528,-9.1535,-9.1606,-9.171,-9.1771,-9.189,-9.1986,-9.2073,-9.2104,-9.2073,-9.207,-9.2099,-9.2105,-9.21,-9.2105,-9.1756,-9.2061,-9.2059,-9.2057,-9.2056,-9.2055,-9.1274,-9.1358,-9.1423,-9.1522,-9.1572,-9.1636,-9.1717,-9.1744,-9.1832,-9.1931,-9.1924,-9.2039,-9.2098,-9.2212,-9.2251,-9.2339,-9.23,-9.2341,-9.2352,-9.2363,-9.2374,-9.2086,-9.2354,-9.2354,-9.2353,-9.2353,-9.2352,0,-9.1535,-9.1575,-9.1666,-9.1762,-9.184,-9.1806,-9.1878,-9.1945,-9.2048,-9.2107,-9.2186,-9.2305,-9.24,-9.2435,-9.2526,-9.2591,-9.2578,-9.2615,-9.261,-9.2618,-9.2404,-9.237,-9.2623,-9.2623,-9.2623,-9.2623,-9.2623,-9.2623,-9.168,-9.1822,-9.1834,-9.2,-9.2038,-9.2153,-9.2198,-9.2256,-9.2304,-9.244,-9.252,-9.2543,-9.2593,-9.2688,-9.2773,-9.2781,-9.2816,-9.286,-9.2861,-9.266,-9.2633,-9.2607,-9.2575,-9.2867,-9.2868,-9.3068,-9.307,-9.3071]}]]